Location: Peterborough
(44.3091°N, 78.3197°W)
Time: 18:43:52
(UTC-04:00)

Vanguard 2 Rocket - Pass Details

Date: 31 March 2023
Orbit: 554 x 3314 km, 32.9° (Epoch: 05 June)

Event Time Altitude Azimuth Distance (km) Brightness Sun altitude
Rises 00:12:09 0° 265° (W) 4,370 10.6 -39.5°
Reaches altitude 10° 00:15:13 10° 253° (WSW) 3,747 10.0 -39.7°
Enters shadow 00:16:47 15° 245° (WSW) 3,518 9.8 -39.8°
